Regional Weather Roundup
Issued by NWS

Home | Current Version | Previous Version | Text Only | Print | Product List | Glossary On
Versions: 1 2 3 4 5 6 7 8 9 10 11 12 13 14 15 16 17 18 19 20 21 22 23 24 25 26 27 28 29 30 31 32 33 34 35 36 37 38 39 40 41 42 43 44 45 46 47 48 49 50
000
ASUS44 KFWD 271015
RWRTX
NORTH TEXAS HOURLY WEATHER ROUNDUP
NATIONAL WEATHER SERVICE FORT WORTH TX
400 AM CST TUE JAN 27 2015

NOTE: "FAIR" INDICATES FEW OR NO CLOUDS BELOW 12,000 FEET WITH NO
SIGNIFICANT WEATHER AND/OR OBSTRUCTIONS TO VISIBILITY.

TXZ118-119-271100-
DALLAS/FORT WORTH METROPLEX

CITY           SKY/WX    TMP DP  RH WIND       PRES   REMARKS
DFW AIRPORT    PTCLDY    45  35  68 SW3       30.07F
DALLAS LOVE    FAIR      46  38  73 CALM      30.08F
FTW MEACHAM    CLEAR     52  37  56 W6        30.08F
DAL-EXECUTIVE  CLEAR     57  36  45 W8        30.07S
FTW-ALLIANCE   PTCLDY    50  35  56 CALM      30.08F
FTW-SPINKS     CLEAR     53  36  51 W5        30.11S
ARLINGTON      CLEAR     43  34  70 SE3       30.08F
GRAND PRAIRIE  CLEAR     48  39  70 CALM      30.10S
ADDISON        CLEAR     50  38  63 CALM      30.10S
MESQUITE       CLEAR     41  37  87 N3        30.07F
LANCASTER      CLEAR     51  35  53 W6        30.08F
$$

TXZ091>094-102>105-117-120-121-131>134-271100-
NORTH CENTRAL TEXAS

CITY           SKY/WX    TMP DP  RH WIND       PRES   REMARKS
SHRMAN/DENISON CLEAR     49  40  72 CALM      30.09S
GAINESVILLE    CLEAR     44  37  75 CALM      30.11S
BOWIE          CLEAR     48  37  66 NW6       30.10S
BRIDGEPORT     CLEAR     49  37  63 SW5       30.12S
DECATUR        CLEAR     51  36  56 W6        30.10S
DENTON         CLEAR     42  36  79 NW3       30.09R
MCKINNEY       CLEAR     42  36  79 CALM      30.08R
GREENVILLE     CLEAR     41  36  81 CALM      30.07S
ROCKWALL       CLEAR     53  37  53 W3        30.07S
TERRELL        CLEAR     41  37  86 N3        30.07F
WAXAHACHIE     FAIR      52  38  59 W8        30.10S
CLEBURNE       PTCLDY    52  36  54 W9        30.11S
GRANBURY       PTCLDY    43  36  77 CALM      30.12F
$$

TXZ083>090-098>101-113>116-127>130-139>142-154-155-271100-
WESTERN NORTH TEXAS

CITY           SKY/WX    TMP DP  RH WIND       PRES   REMARKS
WICHITA FALLS  CLEAR     48  35  60 NW6       30.10S
WF-KICKAPOO    CLEAR     40  31  69 W5        30.12S WCI  37
VERNON         CLEAR     44  32  62 NW6       30.13S
ABILENE        PTCLDY    45  34  65 S6        30.17S
ABILENE-DYESS  PTCLDY    53  36  52 VRB3      30.15F
BRECKENRIDGE   PTCLDY    52  34  51 SW6       30.14S
GRAHAM         PTCLDY    40  35  82 CALM      30.12S
MINERAL WELLS  PTCLDY    40  34  79 CALM      30.10F
STEPHENVILLE   PTCLDY    51  36  55 NW6       30.15F
COMANCHE       PTCLDY    55  36  48 CALM      30.14S
BROWNWOOD      CLOUDY    39  36  87 CALM      30.17S
COLEMAN        MOCLDY    52  37  56 W10       30.16F
BRADY          CLEAR     45  36  70 NW8       30.16F
$$

TXZ143>147-156>162-174-175-271100-
CENTRAL TEXAS

CITY           SKY/WX    TMP DP  RH WIND       PRES   REMARKS
WACO           PTCLDY    42  37  82 SW5       30.10S WCI  39
WACO-MCGREGOR  PTCLDY    48  36  61 W5        30.11F
HILLSBORO      PTCLDY    46  36  67 CALM      30.10S
CORSICANA      CLEAR     47  38  71 W7        30.09S
MEXIA          PTCLDY    50  37  61 W8        30.08F
HEARNE         CLEAR     40  38  91 CALM      30.12F
CAMERON        CLEAR     50  40  67 SW8       30.11F
TEMPLE         CLEAR     48  34  57 W3        30.10F
KILLEEN        CLEAR     57  35  43 W14       30.12S
KILLEEN-SKYLRK CLEAR     52  34  50 CALM      30.11F
FORT HOOD      CLEAR     55  36  50 MISG      30.11F
GATESVILLE     CLEAR     48  36  61 CALM      30.14F
HAMILTON       PTCLDY    53  37  55 W12       30.14F
LAMPASAS       CLEAR     55  37  50 W6        30.13S
$$

TXZ095>097-106>112-122>126-135>138-148>153-164>167-271100-
EAST TEXAS

CITY           SKY/WX    TMP DP  RH WIND       PRES   REMARKS
PARIS          CLEAR     48  37  66 NW6       30.07S
SULPHUR SPRNGS CLEAR     43  38  82 SW6       30.08S WCI  39
MOUNT PLEASANT CLEAR     43  38  82 CALM      30.07S
GILMER         CLEAR     44  38  80 CALM      30.06S
MINEOLA        CLEAR     39  37  93 CALM      30.07F
TYLER          CLEAR     46  37  71 SW3       30.06F
LONGVIEW       CLEAR     41  36  82 CALM      30.05F
MARSHALL       CLEAR     39  36  89 CALM      30.08R
ATHENS         CLEAR     37  36  93 CALM      30.07S
PALESTINE      CLEAR     42  38  88 CALM      30.09F
JACKSONVILLE   CLEAR     56  38  49 W9        30.08F
HENDERSON      CLEAR     38  37  94 CALM      30.07F
NACOGDOCHES    CLEAR     39  34  81 CALM      30.08S
LUFKIN         CLEAR     45  38  76 CALM      30.07F
$$

SUPPLEMENTAL OBSERVATIONS (CENTRAL)

CITY           SKY/WX    TMP DP  RH WIND       PRES   REMARKS
LAKE TEXOMA      N/A     48  41  76 W7          N/A
PAT MAYSE LAKE   N/A     45  39  81 S1          N/A
GREENVILLE       N/A     45  36  70 W3          N/A
CEDAR HILL       N/A     50  34  53 S3          N/A
ATHENS           N/A     46  39  76 CALM        N/A
PALESTINE        N/A     46  36  66 CALM        N/A
LAKE LIMESTONE   N/A     50  37  62 W7          N/A
MCGREGOR         N/A     52  37  58 SW5G16      N/A
TEMPLE           N/A     54  34  47 W7          N/A
$$

SUPPLEMENTAL OBSERVATIONS (WEST)

CITY           SKY/WX    TMP DP  RH WIND       PRES   REMARKS
MILLERS CREEK    N/A     39  34  81 SW7         N/A  WCI  34
POSSUM KINGDOM   N/A     52  34  50 SW7         N/A
GRANBURY         N/A     43  36  75 W2          N/A
COMANCHE         N/A     54  32  43 NW1G13      N/A
HAMBY            N/A     39  32  75 E5          N/A  WCI  36
COLORADO BEND    N/A     45  32  61 CALM        N/A
$$

SUPPLEMENTAL OBSERVATIONS (EAST)

CITY           SKY/WX    TMP DP  RH WIND       PRES   REMARKS
CLARKSVILLE      N/A     45  39  81 NW3         N/A
TEXARKANA        N/A     32  28  86 CALM        N/A
CADDO LAKE       N/A     36  34  93 CALM        N/A
GILMER           N/A     43  37  81 CALM        N/A
HENDERSON        N/A     39  36  87 CALM        N/A
LUFKIN           N/A     39  36  87 MISG        N/A
N SABINE NF      N/A     43  37  81 MISG        N/A
S SABINE NF      N/A     45  37  76 SE2         N/A
$$

SUPPLEMENTAL OBSERVATIONS ARE A COLLECTION OF AUTOMATED INSTRUMENTS
THAT ARE MAINTAINED BY A VARIETY OF FEDERAL AND STATE AGENCIES.
CERTAIN ELEMENTS...SUCH AS HUMIDITY VALUES AND SUSTAINED WIND
SPEEDS...MAY BE APPROXIMATED.




USA.gov is the U.S. government's official web portal to all federal, state and local government web resources and services.